Time,TemperatureF,DewpointF,PressureIn,WindDirection,WindDirectionDegrees,WindSpeedMPH,WindSpeedGustMPH,Humidity,HourlyPrecipIn,Conditions,Clouds,dailyrainin,SoftwareType,DateUTC
2015-05-04 00:07:00,61.5,40.0,30.06,SW,226,10.0,-999.0,45,-99.99,,,0.00,weatherlink.com 1.10,2015-05-04 04:07:00,
2015-05-04 00:22:00,61.5,40.0,30.07,WSW,246,6.0,-999.0,45,-99.99,,,0.00,weatherlink.com 1.10,2015-05-04 04:22:00,
2015-05-04 00:37:00,61.6,40.0,30.07,SW,230,9.0,-999.0,45,-99.99,,,0.00,weatherlink.com 1.10,2015-05-04 04:37:00,
2015-05-04 00:52:00,61.5,40.0,30.07,SW,234,8.0,-999.0,45,-99.99,,,0.00,weatherlink.com 1.10,2015-05-04 04:52:00,
2015-05-04 01:07:00,61.6,40.0,30.07,WSW,240,6.0,-999.0,45,-99.99,,,0.00,weatherlink.com 1.10,2015-05-04 05:07:00,
2015-05-04 01:22:00,61.5,40.0,30.07,WSW,237,7.0,-999.0,45,-99.99,,,0.00,weatherlink.com 1.10,2015-05-04 05:22:00,
2015-05-04 01:37:00,61.5,40.0,30.07,SW,229,7.0,-999.0,45,-99.99,,,0.00,weatherlink.com 1.10,2015-05-04 05:37:00,
2015-05-04 01:52:00,61.4,40.0,30.07,SW,226,6.0,-999.0,45,-99.99,,,0.00,weatherlink.com 1.10,2015-05-04 05:52:00,
2015-05-04 02:07:00,61.6,40.0,30.07,SW,223,6.0,-999.0,45,-99.99,,,0.00,weatherlink.com 1.10,2015-05-04 06:07:00,
2015-05-04 02:22:00,61.7,40.0,30.07,WSW,244,4.0,-999.0,45,-99.99,,,0.00,weatherlink.com 1.10,2015-05-04 06:22:00,
2015-05-04 02:37:00,61.5,40.0,30.06,SW,231,6.0,-999.0,45,-99.99,,,0.00,weatherlink.com 1.10,2015-05-04 06:37:00,
2015-05-04 02:52:00,61.4,40.0,30.06,SW,234,6.0,-999.0,45,-99.99,,,0.00,weatherlink.com 1.10,2015-05-04 06:52:00,
2015-05-04 03:07:00,61.2,40.0,30.06,SW,218,3.0,-999.0,45,-99.99,,,0.00,weatherlink.com 1.10,2015-05-04 07:07:00,
2015-05-04 03:22:00,61.2,40.0,30.06,SW,219,5.0,-999.0,45,-99.99,,,0.00,weatherlink.com 1.10,2015-05-04 07:22:00,
2015-05-04 03:37:00,60.9,39.0,30.06,SW,221,4.0,-999.0,45,-99.99,,,0.00,weatherlink.com 1.10,2015-05-04 07:37:00,
2015-05-04 03:52:00,60.5,39.0,30.07,SSW,193,4.0,-999.0,45,-99.99,,,0.00,weatherlink.com 1.10,2015-05-04 07:52:00,
2015-05-04 04:07:00,60.5,39.0,30.06,SSW,199,4.0,-999.0,45,-99.99,,,0.00,weatherlink.com 1.10,2015-05-04 08:07:00,
2015-05-04 04:22:00,60.7,39.0,30.07,SW,226,6.0,-999.0,45,-99.99,,,0.00,weatherlink.com 1.10,2015-05-04 08:22:00,
2015-05-04 04:37:00,60.5,39.0,30.06,South,187,7.0,-999.0,46,-99.99,,,0.00,weatherlink.com 1.10,2015-05-04 08:37:00,
2015-05-04 04:52:00,60.4,39.0,30.06,SSW,213,6.0,-999.0,46,-99.99,,,0.00,weatherlink.com 1.10,2015-05-04 08:52:00,
2015-05-04 05:07:00,60.1,39.0,30.06,SSW,205,3.0,-999.0,46,-99.99,,,0.00,weatherlink.com 1.10,2015-05-04 09:07:00,